[[{"header":{"parameterUnit":"m.s-1","parameterCategory":1,"la1":30.2991,"la2":30.254,"lo1":-89.0895,"lo2":-89.0444,"dy":0.0017,"dx":0.0017,"nx":28,"ny":28,"refTime":"2023-07-18T09:00:00:Z","depth":0,"parameterNumber":2,"parameterNumberName":"U-component_of_WINDS"},"data":[0,0,0,0,0,0,0,0,0,0,0,0,0,0,0,0,0,0,0,0,0,0,0,0,0,0,0,0,0,0,0,0,0,0,0,0,0,0,0,0,0,0,0,0,0,0,0,0,0,0,0,0,0,0,0,0,0,0,1.0676,1.0676,0,1.0703,1.0703,1.0704,1.0694,1.0693,1.0692,1.0692,1.0724,1.0725,1.0727,0,0,0,0,0,0,0,0,0,0,0,0,0,1.0617,1.0618,1.0676,1.0676,1.0676,1.0703,1.0704,1.0704,1.0694,1.0693,1.0692,1.0691,1.0723,1.0725,1.0727,0,0,0,0,0,0,0,0,0,0,0,0,0,1.0644,1.0619,1.0676,1.0674,1.0675,1.0703,1.0704,1.0704,1.0694,1.0693,1.0692,1.0691,1.0723,1.0725,1.0727,1.0759,0,0,1.0734,1.0734,0,0,0,0,0,0,0,0,1.0642,1.0646,1.0674,1.0675,1.0675,1.0694,1.0695,1.0723,1.0694,1.0687,1.0692,1.0691,1.0715,1.0718,1.0725,1.0761,1.0762,1.0734,1.0735,1.0736,1.0737,0,0,0,0,0,0,0,1.064,1.0645,1.0687,1.0675,1.0675,1.0673,1.0676,1.07,1.0706,1.0687,1.0686,1.069,1.0715,1.0723,1.0726,1.0763,1.0734,1.0736,1.0737,1.0738,1.0826,1.0827,0,0,0,0,0,0,1.0638,1.0643,1.0686,1.0688,1.0656,1.0675,1.0678,1.0689,1.0706,1.0707,1.069,1.0689,1.072,1.0723,1.0727,1.0765,1.0736,1.0738,1.0739,1.0825,1.0826,1.0828,0,0,0,0,0,0,1.0637,1.0642,1.0685,1.0665,1.067,1.0677,1.0689,1.069,1.0698,1.0708,1.0709,1.0697,1.0719,1.0724,1.0751,1.0766,1.0739,1.0741,1.0824,1.0826,1.0827,1.0843,0,0,0,0,0,0,1.0635,1.0641,1.0653,1.0665,1.0671,1.0708,1.069,1.0691,1.0701,1.07,1.0715,1.0717,1.0719,1.0748,1.0753,1.0769,1.0743,1.0823,1.0825,1.0826,1.0841,1.0845,1.0848,0,0,0,0,0,1.0633,1.0658,1.0654,1.0659,1.0686,1.0709,1.0712,1.0713,1.0702,1.0715,1.0721,1.0716,1.0764,1.0751,1.0757,1.0773,1.0822,1.0824,1.0826,1.084,1.0844,1.0848,0,0,0,0,0,0,1.0649,1.0659,1.0655,1.0684,1.0695,1.0707,1.0722,1.0718,1.0733,1.0731,1.0733,1.0736,1.0764,1.0772,1.0757,1.0805,1.0791,1.0795,1.0799,1.0804,1.0807,1.0805,1.0744,0,0,0,0,0,1.0655,1.0672,1.068,1.0705,1.0711,1.0716,1.0725,1.0725,1.0737,1.0742,1.075,1.0763,1.0781,1.0793,1.081,1.0842,1.0845,1.0857,1.086,1.0863,1.0866,1.0883,1.0888,1.0835,1.0835,1.0835,0,0,1.067,1.0678,1.0688,1.0709,1.0717,1.0735,1.072,1.0739,1.0752,1.0745,1.0771,1.0778,1.0792,1.0822,1.0835,1.0829,1.0881,1.0866,1.0868,1.087,1.0886,1.0891,1.0896,1.0837,1.0837,1.0836,0,0,1.0705,1.0712,1.0733,1.0742,1.0754,1.0757,1.0762,1.0774,1.0777,1.0803,1.0798,1.0814,1.0845,1.0855,1.0864,1.0902,1.0898,1.0908,1.0926,1.0943,1.0947,1.0951,1.0964,1.0969,1.0911,1.0911,1.0911,0,1.0721,1.0746,1.0745,1.0765,1.0774,1.0767,1.0788,1.0797,1.0815,1.0822,1.0814,1.0852,1.0861,1.0893,1.0902,1.091,1.0916,1.0906,1.0946,1.095,1.0954,1.0966,1.0971,1.0912,1.0912,1.0912,1.0912,0,1.0766,1.0784,1.0799,1.0815,1.0826,1.0847,1.085,1.0861,1.0859,1.0863,1.0889,1.09,1.0919,1.0926,1.0925,1.0958,1.0953,1.0946,1.0932,1.096,1.0972,1.0976,1.0914,1.0913,1.0913,1.0913,0,0,1.0812,1.0826,1.0832,1.0839,1.0852,1.0866,1.0886,1.0903,1.0913,1.0925,1.0943,1.0968,1.0961,1.0971,1.0972,1.0986,1.1015,1.0977,1.0978,1.0984,1.1051,1.1056,1.1061,1.1012,1.1013,1.1014,1.1049,0,1.0848,1.0882,1.0882,1.0914,1.093,1.0923,1.0941,1.0951,1.0955,1.097,1.0975,1.0993,1.0982,1.0988,1.1002,1.1008,1.1028,1.1006,1.1029,1.103,1.1025,1.1068,1.1074,1.1107,1.1054,1.1055,1.1055,0,1.0895,1.0907,1.094,1.095,1.0957,1.0973,1.0988,1.1002,1.1013,1.1015,1.1026,1.1024,1.1045,1.103,1.1059,1.1044,1.1053,1.1057,1.1059,1.1061,1.1044,1.1071,1.1117,1.1122,1.1063,1.1062,1.1062,0,1.0925,1.095,1.0973,1.0979,1.0991,1.1002,1.1008,1.1018,1.1028,1.1041,1.1048,1.1064,1.1073,1.1086,1.1088,1.1077,1.1118,1.1103,1.112,1.112,1.1129,1.1129,1.1177,1.1135,1.1135,1.1135,1.1135,0,1.0965,1.0985,1.0986,1.1001,1.1024,1.1023,1.1046,1.1051,1.106,1.1075,1.1071,1.1086,1.1087,1.1103,1.1105,1.1129,1.1133,1.1136,1.1136,1.1136,1.1136,1.1142,1.114,1.1136,1.1136,1.1136,1.1136,0,1.1002,1.1004,1.1028,1.1037,1.104,1.1056,1.1064,1.1078,1.1081,1.1101,1.1105,1.111,1.1128,1.1131,1.1153,1.1155,1.1183,1.1181,1.1178,1.1178,1.1195,1.1193,1.125,1.1257,1.121,1.1211,1.1211,0,1.1027,1.1043,1.1053,1.1062,1.1068,1.1084,1.1093,1.1093,1.1103,1.1117,1.1129,1.1146,1.116,1.1189,1.1195,1.1211,1.121,1.1228,1.1212,1.1211,1.121,1.1208,1.121,1.1232,1.1232,1.1232,1.1233,0,1.1072,1.1072,1.1085,1.1099,1.111,1.1121,1.1132,1.114,1.1141,1.1153,1.117,1.1181,1.1202,1.1219,1.1235,1.1241,1.1237,1.1238,1.1242,1.1243,1.124,1.1241,1.1187,1.1237,1.1236,1.1236,1.1236,1.1236,1.1104,1.1117,1.1126,1.1141,1.1149,1.1158,1.1171,1.1175,1.1189,1.1206,1.1205,1.1224,1.1235,1.1255,1.1263,1.1278,1.1272,1.128,1.1281,1.1283,1.1284,1.1238,1.1281,1.1281,1.1281,1.1281,1.1281,0,1.1148,1.1153,1.1167,1.1181,1.1193,1.1187,1.1198,1.1208,1.1225,1.1234,1.1247,1.1267,1.1283,1.129,1.1306,1.1317,1.1316,1.1321,1.1321,1.1322,1.1289,1.1283,1.1322,1.1322,1.1322,1.1322,1.1322,1.1322,1.1172,1.1194,1.1195,1.122,1.1225,1.1243,1.125,1.1259,1.1266,1.1288,1.1301,1.1305,1.1314,1.133,1.1345,1.1346,1.1352,1.1359,1.136,1.1329,1.1325,1.1321,1.1315,1.136,1.136,1.1392,1.1392,1.1392]},{"header":{"parameterUnit":"m.s-1","parameterCategory":1,"la1":30.2991,"la2":30.254,"lo1":-89.0895,"lo2":-89.0444,"dy":0.0017,"dx":0.0017,"nx":28,"ny":28,"refTime":"2023-07-18T09:00:00:Z","depth":0,"parameterNumber":3,"parameterNumberName":"V-component_of_WINDS"},"data":[0,0,0,0,0,0,0,0,0,0,0,0,0,0,0,0,0,0,0,0,0,0,0,0,0,0,0,0,0,0,0,0,0,0,0,0,0,0,0,0,0,0,0,0,0,0,0,0,0,0,0,0,0,0,0,0,0,0,2.1321,2.1322,0,2.1393,2.1394,2.1395,2.1436,2.1436,2.1436,2.1436,2.1507,2.1509,2.1511,0,0,0,0,0,0,0,0,0,0,0,0,0,2.1213,2.1215,2.1321,2.1322,2.1323,2.1393,2.1394,2.1395,2.1436,2.1436,2.1436,2.1436,2.1507,2.1509,2.1511,0,0,0,0,0,0,0,0,0,0,0,0,0,2.127,2.1216,2.1321,2.1352,2.1355,2.1393,2.1394,2.1396,2.1436,2.1436,2.1436,2.1436,2.1506,2.1509,2.1511,2.1524,0,0,2.1519,2.1521,0,0,0,0,0,0,0,0,2.1267,2.1274,2.1346,2.135,2.1353,2.1406,2.1382,2.1438,2.1435,2.1405,2.1436,2.1436,2.1473,2.1479,2.1492,2.1527,2.153,2.152,2.1521,2.1522,2.1523,0,0,0,0,0,0,0,2.1263,2.1271,2.135,2.1347,2.1352,2.136,2.1368,2.1393,2.1437,2.1408,2.1411,2.1419,2.1475,2.1489,2.1494,2.1531,2.152,2.1522,2.1524,2.1525,2.1577,2.1576,0,0,0,0,0,0,2.1254,2.1268,2.1347,2.1352,2.131,2.1362,2.1371,2.1389,2.1437,2.1444,2.1419,2.142,2.1484,2.149,2.1496,2.1512,2.1522,2.1525,2.1526,2.1577,2.1577,2.1576,0,0,0,0,0,0,2.1252,2.1261,2.1344,2.1311,2.1322,2.1364,2.1383,2.139,2.1404,2.1445,2.1453,2.1425,2.1485,2.1493,2.1516,2.1515,2.1526,2.1529,2.1577,2.1577,2.1576,2.1544,0,0,0,0,0,0,2.1249,2.126,2.1267,2.131,2.1323,2.1364,2.1383,2.1391,2.1409,2.1412,2.1453,2.146,2.1486,2.1512,2.1519,2.1519,2.1531,2.1577,2.1577,2.1577,2.1546,2.1543,2.1541,0,0,0,0,0,2.1245,2.1255,2.1267,2.1276,2.1333,2.1364,2.1372,2.1401,2.1409,2.1414,2.144,2.1459,2.1514,2.1514,2.1522,2.1523,2.1578,2.1577,2.1577,2.1547,2.1544,2.1541,0,0,0,0,0,0,2.1211,2.1262,2.1275,2.13,2.1328,2.1371,2.138,2.1397,2.1423,2.1425,2.146,2.1468,2.1488,2.1508,2.1507,2.1536,2.1548,2.1549,2.1522,2.1519,2.1517,2.1511,2.1533,0,0,0,0,0,2.1206,2.1228,2.1271,2.1289,2.1302,2.1338,2.1353,2.1373,2.1403,2.1415,2.1442,2.1469,2.1492,2.1507,2.1531,2.1548,2.1557,2.1553,2.155,2.1548,2.1548,2.1556,2.1554,2.1575,2.1575,2.1575,0,0,2.1197,2.1227,2.124,2.1283,2.1307,2.1327,2.1348,2.137,2.1385,2.1418,2.1441,2.1462,2.1494,2.1514,2.1524,2.1531,2.1544,2.1547,2.1545,2.1547,2.1555,2.1553,2.1552,2.1574,2.1574,2.1575,0,0,2.119,2.1216,2.1233,2.1255,2.129,2.1314,2.1317,2.1358,2.1373,2.1397,2.1421,2.1438,2.1479,2.1499,2.1515,2.1512,2.1529,2.1519,2.1506,2.1513,2.1511,2.151,2.1507,2.1505,2.1519,2.1519,2.1519,0,2.1174,2.1208,2.1239,2.1259,2.1276,2.1306,2.1321,2.1341,2.1382,2.1392,2.1399,2.1448,2.1472,2.1495,2.1494,2.1507,2.151,2.1515,2.1509,2.1508,2.1507,2.1504,2.1503,2.1517,2.1518,2.1518,2.1518,0,2.1185,2.1207,2.1216,2.1254,2.1272,2.1289,2.1321,2.1335,2.1353,2.1375,2.1397,2.1426,2.1455,2.1462,2.148,2.1487,2.149,2.1503,2.1515,2.1503,2.1501,2.15,2.1515,2.1516,2.1516,2.1517,0,0,2.1162,2.1214,2.1217,2.1233,2.1272,2.1289,2.1306,2.1334,2.1344,2.137,2.1384,2.1415,2.1426,2.1444,2.1464,2.147,2.1463,2.1482,2.1483,2.1476,2.1469,2.1459,2.1457,2.1474,2.1474,2.1474,2.1466,0,2.116,2.1193,2.122,2.1242,2.1262,2.1288,2.1303,2.1327,2.1347,2.1365,2.1386,2.1407,2.1421,2.1432,2.1439,2.1462,2.1462,2.1463,2.1485,2.1486,2.1476,2.1457,2.1447,2.1438,2.1466,2.1466,2.1466,0,2.1163,2.1187,2.1211,2.1245,2.1254,2.1267,2.1293,2.131,2.1337,2.135,2.1368,2.1389,2.1405,2.1416,2.1438,2.1438,2.1448,2.146,2.1461,2.1464,2.1475,2.1458,2.1436,2.1434,2.1465,2.1465,2.1465,0,2.1141,2.118,2.1198,2.1211,2.1252,2.1259,2.1276,2.1303,2.1317,2.1339,2.1348,2.1372,2.1384,2.1401,2.1426,2.1432,2.1445,2.1458,2.1455,2.1454,2.1456,2.1456,2.1435,2.1464,2.1465,2.1465,2.1465,0,2.1137,2.115,2.1189,2.12,2.1214,2.1243,2.1257,2.1276,2.1298,2.1312,2.1337,2.1349,2.1382,2.1397,2.1416,2.143,2.1436,2.1446,2.1451,2.1444,2.1442,2.145,2.1451,2.1464,2.1464,2.1464,2.1464,0,2.1115,2.1142,2.1164,2.1199,2.1208,2.1217,2.1246,2.1257,2.1277,2.1294,2.1299,2.133,2.1349,2.1376,2.1403,2.1416,2.1426,2.1435,2.1417,2.142,2.1415,2.1414,2.1398,2.1396,2.1428,2.1427,2.1427,0,2.1111,2.1121,2.1156,2.1167,2.1183,2.1201,2.1214,2.1242,2.1255,2.1284,2.129,2.1311,2.1329,2.1358,2.1382,2.1402,2.141,2.1403,2.1414,2.1405,2.1408,2.1407,2.1407,2.1401,2.14,2.14,2.1399,0,2.1098,2.111,2.1129,2.1151,2.1166,2.1186,2.1206,2.1213,2.1244,2.1257,2.1277,2.129,2.1317,2.1336,2.1359,2.1375,2.1391,2.1396,2.1396,2.1388,2.1377,2.1381,2.1409,2.1396,2.1396,2.1397,2.1397,2.1397,2.1084,2.1093,2.1118,2.1138,2.1155,2.1172,2.1183,2.1203,2.122,2.1244,2.1259,2.1277,2.1299,2.1331,2.1346,2.1359,2.1366,2.1367,2.1367,2.1366,2.1362,2.1375,2.1363,2.1364,2.1364,2.1364,2.1364,0,2.1071,2.1088,2.1105,2.1131,2.1146,2.1159,2.1181,2.1192,2.1207,2.1227,2.1244,2.1264,2.1282,2.1306,2.1325,2.1331,2.1339,2.1335,2.1334,2.1337,2.1356,2.1353,2.1328,2.1328,2.1328,2.1328,2.1328,2.1328,2.1066,2.1082,2.1095,2.1118,2.1135,2.1152,2.1163,2.1178,2.1194,2.1215,2.123,2.1245,2.1266,2.1286,2.1302,2.1309,2.1314,2.1307,2.1316,2.1333,2.1336,2.1339,2.1337,2.1308,2.1308,2.1295,2.1295,2.1295]}]]